ratakan.com alexa rank chart, ratakan.com alexa rank daily changes

ratakan.com alexa rank chart, ratakan.com alexa rank daily changes

ratakan.com
Actual rank:
117 124

RANK HISTORY

Date Rank Diff
2017/09/24 117 124 +1 587
2017/09/23 115 537 +3 592
2017/09/22 111 945 +1 210
2017/09/20 110 735 +1 072
2017/09/19 109 663 +558
2017/09/18 109 105 +976
2017/09/17 108 129 +1 765
2017/09/16 106 364 +989
2017/09/15 105 375 +105
2017/09/14 105 270 +107
2017/09/13 105 163 -3 109
2017/09/12 108 272 -1 837
2017/09/11 110 109 -371
2017/09/10 110 480 +1 214
2017/09/09 109 266 -516
2017/09/08 109 782 +1 148
2017/09/07 108 634 +843
2017/09/06 107 791 -210
2017/09/05 108 001 -942
2017/09/04 108 943 -936
2017/09/03 109 879 -939
2017/09/02 110 818 -818
2017/09/01 111 636 -1 200
2017/08/31 112 836 -265
2017/08/30 113 101 +64
2017/08/29 113 037 -2 361
2017/08/28 115 398 -963
2017/08/27 116 361 -901
2017/08/26 117 262 -2 672
2017/08/25 119 934 -2 300
2017/08/24 122 234 -217
2017/08/23 122 451 -1 714
2017/08/22 124 165 -920
2017/08/21 125 085 -1 052
2017/08/20 126 137 -1 004
2017/08/19 127 141 -975
2017/08/18 128 116 -1 313
2017/08/17 129 429 -1 114
2017/08/16 130 543 -313
2017/08/15 130 856 +1 457
2017/08/14 129 399 -496
2017/08/13 129 895 -559
2017/08/12 130 454 +146
2017/08/11 130 308 +783
2017/08/10 129 525 -639
2017/08/09 130 164 +756
2017/08/08 129 408 -761
2017/08/07 130 169 -1 605
2017/08/06 131 774 -408
2017/08/05 132 182 +351
2017/08/04 131 831 -1 050
2017/08/03 132 881 -250
2017/08/02 133 131 +569
2017/08/01 132 562 -364
2017/07/31 132 926 -2 677
2017/07/30 135 603 -2 020
2017/07/29 137 623 +135
2017/07/28 137 488 -3 173
2017/07/27 140 661 -2 119
2017/07/26 142 780

WIDGET FOR YOUR SITE

DOMAINS WITH THE NEAREST RANK

Domain Rank
vip.hr 117 119
caixinglobal.com 117 120
speedgabia.com 117 121
wtm.com 117 122
reece.com.au 117 123
ratakan.com 117 124
yamasha.net 117 125
animelayer.ru 117 126
mirrorservice.org 117 127
chuangbie.com 117 128
magicdrop.ru 117 129

DOMAINS WITH THE NEAREST RANK BY TLD .com

Domain Rank
selerasa.com 117 117
searsholdings.com 117 118
caixinglobal.com 117 120
speedgabia.com 117 121
wtm.com 117 122
ratakan.com 117 124
chuangbie.com 117 128
masculin.com 117 131
stu20.com 117 132
theashleysrealityroundup.com 117 134
ventadepisos.com 117 140